1532574000.92,48281,19.06,74020.3,6.41,5.89,5.85,0,*75
1532574002.16,48282,19.06,74022.8,6.43,5.85,5.77,0,*75
1532574003.39,48283,19.06,74022.3,6.41,5.85,5.77,0,*76
1532574004.64,48284,19.06,74024.5,6.43,5.85,5.77,0,*73
1532574005.89,48285,19.06,74020.5,6.43,5.85,5.85,0,*7F
1532574007.14,48286,19.06,74022.8,6.43,5.85,5.89,0,*70
1532574008.39,48287,19.06,74020.3,6.43,5.89,5.77,0,*7C
1532574009.64,48288,19.06,74022.0,6.43,5.89,5.89,0,*72
1532574010.88,48289,19.06,74022.3,6.41,5.89,5.85,0,*7D
1532574012.08,48290,19.06,74024.3,6.41,5.95,5.85,0,*78
1532574013.33,48291,19.06,74022.5,6.43,5.85,5.77,0,*77
1532574014.58,48292,19.06,74016.5,6.43,5.85,5.77,0,*74
1532574015.83,48293,19.06,74016.8,6.43,5.89,5.77,0,*79
1532574017.08,48294,19.06,74020.8,6.43,5.85,5.73,0,*76
1532574018.31,48295,19.06,74020.0,6.41,5.89,5.73,0,*79
1532574019.56,48296,19.06,74016.8,6.43,5.85,5.85,0,*7D
1532574020.81,48297,19.06,74014.5,6.43,5.89,5.77,0,*7D
1532574022.04,48298,19.06,74014.5,6.43,5.95,5.85,0,*72
1532574023.27,48299,19.06,74020.8,6.43,5.95,5.85,0,*73
1532574024.5,48300,19.06,74026.0,6.41,5.89,5.73,0,*74
1532574025.75,48301,19.06,74024.0,6.43,5.85,5.73,0,*7B
1532574026.99,48302,19.06,74020.0,6.43,5.77,5.77,0,*71
1532574028.22,48303,19.06,74018.0,6.41,5.89,5.77,0,*73
1532574029.47,48304,19.06,74018.0,6.43,5.89,5.85,0,*7B
1532574030.72,48305,19.06,74016.0,6.43,5.85,5.85,0,*76
1532574031.98,48306,19.06,74020.0,6.43,5.89,5.77,0,*74
1532574033.22,48307,19.06,74022.3,6.43,5.77,5.77,0,*74
1532574034.47,48308,19.06,74016.5,6.43,5.89,5.89,0,*7B
1532574035.7,48309,19.06,74016.8,6.43,5.95,5.89,0,*77
1532574036.91,48310,19.06,74018.0,6.41,5.95,5.85,0,*71
1532574038.14,48311,19.06,74018.8,6.43,5.95,5.85,0,*72
1532574039.39,48312,19.06,74018.5,6.43,5.89,5.77,0,*71
1532574040.65,48313,19.06,74012.8,6.43,5.89,5.85,0,*7D
1532574041.89,48314,19.06,74012.8,6.43,5.77,5.77,0,*76
1532574043.13,48315,19.06,74018.5,6.43,5.85,5.73,0,*7E
1532574044.39,48316,19.06,74020.5,6.43,5.89,5.77,0,*75
1532574045.64,48317,19.06,74020.5,6.43,5.89,5.85,0,*79
1532574046.89,48318,19.06,74018.8,6.43,5.85,5.85,0,*7A
1532574048.12,48319,19.06,74022.3,6.43,5.95,5.85,0,*7A
1532574049.37,48320,19.06,74020.5,6.43,5.85,5.77,0,*7C
1532574050.62,48321,19.06,74018.3,6.43,5.89,5.77,0,*71
1532574051.88,48322,19.06,74022.3,6.43,5.89,5.77,0,*72
1532574053.11,48323,19.06,74022.8,6.41,5.89,5.85,0,*7C
1532574054.36,48324,19.06,74016.5,6.43,5.89,5.77,0,*74
1532574055.59,48325,19.06,74016.0,6.43,5.99,5.77,0,*74
1532574056.84,48326,19.06,74018.0,6.43,5.89,5.85,0,*7B
1532574058.1,48327,19.06,74022.8,6.43,5.89,5.77,0,*77
1532574059.35,48328,19.06,74020.8,6.43,5.89,5.77,0,*78
1532574060.6,48329,19.06,74020.5,6.43,5.85,5.77,0,*75
1532574061.84,48330,19.06,74018.8,6.43,5.85,5.73,0,*79
1532574063.05,48331,19.06,74022.3,6.45,5.99,5.89,0,*76
1532574064.27,48332,19.06,74022.8,6.41,5.89,5.77,0,*71
1532574065.5,48333,19.06,74020.0,6.45,5.89,5.77,0,*74
1532574066.72,48334,19.06,74022.0,6.45,5.81,5.77,0,*7B
1532574067.97,48335,19.06,74016.5,6.43,5.85,5.77,0,*78
1532574069.22,48336,19.06,74018.8,6.43,5.89,5.73,0,*73
1532574070.47,48337,19.06,74018.3,6.43,5.85,5.73,0,*7E
1532574071.72,48338,19.06,74020.8,6.43,5.85,5.77,0,*75
1532574072.97,48339,19.06,74018.8,6.43,5.89,5.85,0,*75
1532574074.2,48340,19.06,74018.3,6.45,5.89,5.89,0,*71
1532574075.42,48341,19.06,74016.8,6.45,5.89,5.77,0,*71
1532574076.65,48342,19.06,74016.8,6.45,5.93,5.81,0,*70
1532574077.88,48343,19.06,74020.3,6.45,5.89,5.93,0,*79
1532574079.08,48344,19.06,74022.0,6.45,5.99,5.93,0,*7F
1532574080.28,48345,19.06,74018.8,6.45,5.99,5.93,0,*7E
1532574081.54,48346,19.06,74018.0,6.47,5.93,5.93,0,*75
1532574082.74,48347,19.06,74014.8,6.45,5.99,5.89,0,*77
1532574083.97,48348,19.06,74018.0,6.47,5.99,5.89,0,*7A
1532574085.19,48349,19.06,74016.3,6.45,5.89,5.77,0,*79
1532574086.4,48350,19.06,74016.3,6.45,5.99,5.81,0,*79
1532574087.6,48351,19.06,74016.5,6.45,5.99,5.93,0,*7B
1532574088.85,48352,19.06,74020.5,6.47,5.89,5.89,0,*70
1532574090.05,48353,19.06,74018.0,6.45,5.99,5.89,0,*72
1532574091.28,48354,19.06,74018.3,6.45,5.93,5.89,0,*7F
1532574092.54,48355,19.06,74018.0,6.47,5.93,5.89,0,*7C
1532574093.76,48356,19.06,74018.0,6.45,5.93,5.89,0,*7D
1532574094.99,48357,19.06,74016.8,6.45,5.93,5.89,0,*7C
1532574096.21,48358,19.06,74016.8,6.45,5.81,5.77,0,*71
1532574097.45,48359,19.06,74018.0,6.47,5.77,5.77,0,*7B
1532574098.68,48360,19.06,74018.0,6.45,5.89,5.81,0,*7B
1532574099.93,48361,19.06,74018.0,6.47,5.81,5.77,0,*79
1532574101.18,48362,19.06,74016.3,6.47,5.89,5.81,0,*7B
1532574102.41,48363,19.06,74014.8,6.45,5.89,5.81,0,*78
1532574103.67,48364,19.06,74018.8,6.47,5.89,5.81,0,*7D
1532574104.92,48365,19.06,74014.8,6.47,5.89,5.77,0,*75
1532574106.15,48366,19.06,74018.5,6.45,5.93,5.89,0,*7E
1532574107.37,48367,19.06,74018.5,6.45,5.93,5.89,0,*7F
1532574108.6,48368,19.06,74012.0,6.45,5.93,5.89,0,*70
1532574109.8,48369,19.06,74016.5,6.45,5.99,5.93,0,*70
1532574111.01,48370,19.06,74018.8,6.45,6.03,5.93,0,*78
1532574112.21,48371,19.06,74012.8,6.45,5.99,5.81,0,*7A
1532574113.42,48372,19.06,74014.3,6.45,5.99,5.93,0,*7A
1532574114.64,48373,19.06,74014.3,6.47,5.99,5.89,0,*72
1532574115.85,48374,19.06,74012.8,6.45,5.99,5.89,0,*77
1532574117.07,48375,19.06,74012.3,6.45,5.93,5.93,0,*77
1532574118.27,48376,19.06,74014.3,6.45,5.99,5.89,0,*75
1532574119.5,48377,19.06,74014.8,6.45,5.89,5.89,0,*75
1532574120.73,48378,19.06,74014.0,6.47,5.99,5.93,0,*72
1532574121.93,48379,19.06,74012.8,6.45,5.99,5.89,0,*7A
1532574123.16,48380,19.06,74014.0,6.47,5.99,5.89,0,*7E
1532574124.39,48381,19.06,74012.8,6.45,5.93,5.81,0,*7F
1532574125.59,48382,19.06,74012.3,6.49,5.95,5.85,0,*72
1532574126.85,48383,19.06,74014.5,6.47,5.81,5.81,0,*7C
1532574128.1,48384,19.06,74012.5,6.47,5.89,5.77,0,*7A
1532574129.32,48385,19.06,74012.3,6.45,5.81,5.77,0,*71
1532574130.56,48386,19.06,74012.5,6.47,5.77,5.77,0,*79
1532574131.79,48387,19.06,74012.8,6.45,5.89,5.81,0,*72
1532574133.02,48388,19.06,74012.8,6.45,5.89,5.81,0,*7D
1532574134.24,48389,19.06,74014.0,6.45,5.89,5.81,0,*7C
1532574135.5,48390,19.06,74012.0,6.47,5.89,5.81,0,*76
1532574136.75,48391,19.06,74016.8,6.47,5.89,5.81,0,*77
1532574138.01,48392,19.06,74014.0,6.47,5.89,5.81,0,*74
1532574139.26,48393,19.06,74012.3,6.47,5.93,5.89,0,*76
1532574140.48,48394,19.06,74014.3,6.45,5.81,5.77,0,*71
1532574141.73,48395,19.06,74012.5,6.47,5.81,5.77,0,*72
1532574142.95,48396,19.06,74014.5,6.45,5.77,5.77,0,*7A
1532574144.17,48397,19.06,74012.3,6.45,5.89,5.81,0,*73
1532574145.38,48398,19.06,74012.8,6.49,5.95,5.93,0,*7E
1532574146.63,48399,19.06,74014.5,6.47,5.93,5.89,0,*7C
1532574147.89,48400,19.06,74012.8,6.47,5.93,5.89,0,*7B
1532574149.14,48401,19.06,74014.5,6.47,5.93,5.89,0,*7A
1532574150.37,48402,19.06,74014.8,6.45,5.89,5.89,0,*70
1532574151.63,48403,19.06,74014.8,6.47,5.93,5.81,0,*70
1532574152.88,48404,19.06,74014.8,6.47,5.89,5.89,0,*74
1532574154.11,48405,19.06,74016.0,6.49,5.93,5.81,0,*78
1532574155.37,48406,19.06,74014.0,6.47,5.89,5.81,0,*7E
1532574156.56,48407,19.06,74016.5,6.49,6.03,5.95,0,*75
1532574157.78,48408,19.06,74016.0,6.47,5.99,5.93,0,*72
1532574158.99,48409,19.06,74016.3,6.45,5.99,5.93,0,*71
1532574160.24,48410,19.06,74018.8,6.47,5.93,5.89,0,*7A
1532574161.5,48411,19.06,74012.5,6.47,5.89,5.81,0,*78
1532574162.7,48412,19.06,74014.8,6.49,5.95,5.93,0,*7B
1532574163.93,48413,19.06,74016.3,6.45,5.93,5.89,0,*7B
1532574165.18,48414,19.06,74014.3,6.47,5.93,5.93,0,*75
1532574166.37,48415,19.06,74014.5,6.49,6.03,5.95,0,*76
1532574167.56,48416,19.06,74014.8,6.49,6.03,5.95,0,*75
1532574168.79,48417,19.06,74014.8,6.49,5.93,5.85,0,*7F
1532574170.01,48418,19.06,74014.5,6.45,5.89,5.77,0,*7A
1532574171.24,48419,19.06,74018.3,6.47,5.73,5.63,0,*79
1532574172.47,48420,19.06,74012.5,6.45,5.81,5.81,0,*70
1532574173.72,48421,19.06,74014.3,6.47,5.89,5.89,0,*73
1532574174.98,48422,19.06,74010.5,6.47,5.93,5.93,0,*70
1532574176.15,48423,19.06,74012.0,6.49,6.07,5.95,0,*77
1532574177.33,48424,19.06,74014.0,6.49,6.07,6.07,0,*78
1532574178.51,48425,19.06,74014.0,6.45,6.03,6.03,0,*75
1532574179.73,48426,19.06,74012.0,6.47,6.03,5.99,0,*74
1532574180.94,48427,19.06,74012.3,6.47,6.03,5.99,0,*75
1532574182.15,48428,19.06,74012.5,6.47,5.99,5.99,0,*7A
1532574183.38,48429,19.06,74008.3,6.49,5.85,5.81,0,*71
1532574184.63,48430,19.06,74012.0,6.47,5.73,5.73,0,*73
1532574185.88,48431,19.06,74008.8,6.47,5.81,5.81,0,*72
1532574187.09,48432,19.06,74010.0,6.49,6.03,5.93,0,*75
1532574188.34,48433,19.06,74010.0,6.47,5.93,5.93,0,*70
1532574189.57,48434,19.06,74010.5,6.47,5.99,5.89,0,*76
1532574190.8,48435,19.06,74012.8,6.47,5.99,5.93,0,*7C
1532574191.97,48436,19.06,74012.3,6.49,6.07,6.07,0,*7B
1532574193.15,48437,19.06,74012.3,6.49,6.07,5.95,0,*72
1532574194.34,48438,19.06,74012.3,6.49,6.03,6.03,0,*75
1532574195.53,48439,19.06,74012.8,6.49,5.95,6.03,0,*78
1532574196.73,48440,19.06,74014.8,6.47,5.99,5.99,0,*74
1532574197.94,48441,19.06,74012.5,6.47,5.99,5.99,0,*75
1532574199.16,48442,19.06,74010.5,6.47,6.03,5.99,0,*76
1532574200.41,48443,19.06,74012.8,6.47,5.89,5.81,0,*7F
1532574201.59,48444,19.06,74010.0,6.49,5.95,5.95,0,*7E
1532574202.78,48445,19.06,74014.5,6.49,5.95,6.03,0,*73
1532574203.97,48446,19.06,74010.5,6.49,6.03,6.03,0,*7C
1532574205.18,48447,19.06,74010.0,6.47,6.03,5.99,0,*73
1532574206.39,48448,19.06,74016.0,6.47,5.99,5.99,0,*7C
1532574207.6,48449,19.06,74012.3,6.47,5.99,5.99,0,*7D
1532574208.81,48450,19.06,74010.5,6.49,5.93,5.95,0,*7D
1532574210.06,48451,19.06,74014.5,6.47,5.93,5.93,0,*74
1532574211.32,48452,19.06,74012.8,6.47,5.93,5.93,0,*77
1532574212.5,48453,19.06,74012.8,6.49,6.03,5.95,0,*74
1532574213.72,48454,19.06,74010.8,6.51,5.99,5.99,0,*76
1532574214.92,48455,19.06,74008.0,6.49,5.93,5.95,0,*78
1532574216.11,48456,19.06,74010.5,6.49,5.95,5.95,0,*7D
1532574217.29,48457,19.06,74012.8,6.49,6.03,5.95,0,*70
1532574218.52,48458,19.06,74012.8,6.49,5.85,5.81,0,*77
1532574219.7,48459,19.06,74010.8,6.49,5.71,5.71,0,*72
1532574220.92,48460,19.06,74008.5,6.49,5.85,5.85,0,*78
1532574222.15,48461,19.06,74010.0,6.49,5.85,5.85,0,*79
1532574223.38,48462,19.06,74010.8,6.49,5.93,5.85,0,*7D
1532574224.61,48463,19.06,74010.0,6.49,5.81,5.81,0,*7B
1532574225.86,48464,19.06,74010.0,6.47,5.81,5.81,0,*72
1532574227.09,48465,19.06,74008.0,6.49,5.93,5.93,0,*7D
1532574228.34,48466,19.06,74008.8,6.47,5.81,5.89,0,*78
1532574229.59,48467,19.06,74014.0,6.47,5.81,5.81,0,*71
1532574230.82,48468,19.06,74010.5,6.49,5.85,5.85,0,*70
1532574232.08,48469,19.06,74010.0,6.51,5.73,5.81,0,*75
1532574233.33,48470,19.06,74010.8,6.47,5.81,5.81,0,*77
1532574234.58,48471,19.06,74010.8,6.47,5.89,5.93,0,*7D
1532574235.81,48472,19.06,74012.3,6.45,5.93,5.93,0,*77
1532574237.01,48473,19.06,74012.0,6.49,5.95,5.93,0,*7C
1532574238.27,48474,19.06,74012.5,6.47,5.89,5.93,0,*78
1532574239.5,48475,19.06,74008.0,6.49,5.93,5.93,0,*7C
1532574240.68,48476,19.06,74008.5,6.49,5.95,5.95,0,*7F
1532574241.91,48477,19.06,74008.5,6.49,5.93,5.93,0,*7E
1532574243.12,48478,19.06,74008.5,6.49,5.95,5.93,0,*77
1532574244.32,48479,19.06,74008.5,6.49,5.95,5.93,0,*76
1532574245.5,48480,19.06,74010.3,6.49,5.95,5.95,0,*76
1532574246.73,48481,19.06,74010.8,6.49,5.85,5.85,0,*77
1532574247.96,48482,19.06,74014.3,6.49,5.81,5.85,0,*70
1532574249.19,48483,19.06,74010.5,6.49,5.93,5.93,0,*75
1532574250.41,48484,19.06,74008.0,6.49,5.85,5.77,0,*7F
1532574251.66,48485,19.06,74010.8,6.47,5.81,5.89,0,*75
1532574252.89,48486,19.06,74010.0,6.47,5.99,5.93,0,*74
1532574254.08,48487,19.06,74008.0,6.49,6.03,6.03,0,*71
1532574255.29,48488,19.06,74010.0,6.51,5.99,5.95,0,*7B
1532574256.5,48489,19.06,74008.8,6.49,5.93,5.95,0,*79
1532574257.68,48490,19.06,74006.8,6.49,6.07,6.03,0,*73
1532574258.89,48491,19.06,74008.5,6.47,6.03,5.99,0,*78
1532574260.1,48492,19.06,74008.3,6.47,5.99,6.03,0,*7B
1532574261.29,48493,19.06,74008.5,6.49,5.95,6.03,0,*78
1532574262.49,48494,19.06,74014.3,6.49,5.95,5.93,0,*75
1532574263.69,48495,19.06,74012.5,6.51,5.99,6.07,0,*7F
1532574264.9,48496,19.06,74008.8,6.49,5.93,5.95,0,*77
1532574266.08,48497,19.06,74012.5,6.49,5.95,5.95,0,*70
1532574267.27,48498,19.06,74010.3,6.49,6.07,6.03,0,*7B
1532574268.44,48499,19.06,74010.0,6.49,5.95,6.07,0,*76
1532574269.62,48500,19.0,74004.5,6.49,6.07,6.07,0,*7F
1532574270.79,48501,19.06,74008.5,6.49,6.07,6.07,0,*7E
1532574271.97,48502,19.06,74008.0,6.49,6.07,6.03,0,*79
1532574273.18,48503,19.06,74012.8,6.51,6.07,5.99,0,*71
1532574274.39,48504,19.06,74012.8,6.49,5.93,6.03,0,*71
1532574275.62,48505,19.06,74010.3,6.49,5.85,5.93,0,*7D
1532574276.85,48506,19.06,74010.8,6.49,5.93,5.93,0,*79
1532574278.05,48507,19.06,74006.8,6.49,5.95,5.93,0,*7E
1532574279.26,48508,19.06,74012.0,6.49,5.93,5.95,0,*71
1532574280.44,48509,19.06,74008.8,6.49,5.95,5.95,0,*76
1532574281.62,48510,19.06,74008.5,6.49,5.95,6.07,0,*76
1532574282.83,48511,19.06,74012.3,6.51,5.95,5.99,0,*7A
1532574284.04,48512,19.06,74012.3,6.49,5.93,5.95,0,*7A
1532574285.22,48513,19.06,74014.5,6.49,5.95,5.95,0,*7D
1532574286.43,48514,19.06,74012.8,6.49,5.95,5.93,0,*7C
1532574287.61,48515,19.06,74014.3,6.49,5.95,5.95,0,*7B
1532574288.82,48516,19.06,74012.8,6.53,5.99,5.99,0,*73
1532574290.0,48517,19.06,74018.0,6.49,5.95,5.95,0,*79
1532574291.2,48518,19.06,74018.0,6.49,5.95,5.93,0,*70
1532574292.43,48519,19.06,74012.3,6.49,5.93,5.93,0,*77
1532574293.62,48520,19.06,74018.5,6.49,5.95,6.03,0,*71
1532574294.83,48521,19.06,74014.5,6.51,5.95,5.95,0,*75
1532574296.06,48522,19.06,74010.8,6.49,5.93,5.93,0,*7F
1532574297.25,48523,19.06,74016.5,6.49,6.03,5.95,0,*72
1532574298.47,48524,19.06,74018.0,6.49,5.85,5.93,0,*7E
1532574299.7,48525,19.06,74014.5,6.49,5.85,5.93,0,*7F
1532574300.88,48526,19.06,74012.8,6.49,5.95,5.95,0,*7B
1532574302.07,48527,19.06,74014.8,6.49,6.03,6.03,0,*7A
1532574303.25,48528,19.06,74012.3,6.49,6.03,6.07,0,*71
1532574304.43,48529,19.06,74014.3,6.49,6.07,5.95,0,*7C
1532574305.63,48530,19.06,74014.3,6.51,6.07,6.07,0,*75
1532574306.84,48531,19.06,74016.3,6.49,5.95,5.93,0,*7B
1532574308.04,48532,19.06,74014.0,6.49,5.95,5.93,0,*78
1532574309.25,48533,19.06,74014.5,6.51,5.95,5.95,0,*76
1532574310.43,48534,19.06,74014.8,6.49,5.95,5.99,0,*74
1532574311.62,48535,19.06,74014.5,6.49,5.95,5.99,0,*75
1532574312.83,48536,19.06,74016.5,6.49,5.93,5.95,0,*7C
1532574314.03,48537,19.06,74012.0,6.51,6.07,5.99,0,*76
1532574315.24,48538,19.06,74016.3,6.53,5.95,5.95,0,*7F
1532574316.45,48539,19.06,74018.8,6.49,5.93,5.95,0,*73
1532574317.67,48540,19.06,74014.8,6.49,5.85,5.85,0,*7B
1532574318.88,48541,19.0,74014.3,6.49,5.93,5.95,0,*7C
1532574320.09,48542,19.06,74018.8,6.49,5.93,5.95,0,*7F
1532574321.28,48543,19.06,74012.5,6.49,6.03,5.95,0,*74
1532574322.49,48544,19.06,74016.3,6.51,5.99,5.99,0,*76
1532574323.69,48545,19.06,74012.5,6.51,5.99,6.07,0,*73
1532574324.9,48546,19.06,74018.5,6.51,6.07,6.11,0,*73
1532574326.11,48547,19.06,74014.8,6.51,6.11,6.11,0,*75
1532574327.31,48548,19.06,74012.5,6.49,5.93,5.95,0,*75
1532574328.52,48549,19.06,74014.0,6.51,5.99,5.99,0,*7B
1532574329.74,48550,19.06,74018.0,6.51,5.99,5.99,0,*73
1532574330.92,48551,19.06,74016.5,6.49,5.95,6.03,0,*77
1532574332.11,48552,19.06,74018.8,6.49,6.03,6.07,0,*7C
1532574333.3,48553,19.06,74018.8,6.49,6.03,6.03,0,*79
1532574334.48,48554,19.06,74018.3,6.49,6.07,6.03,0,*7A
1532574335.68,48555,19.06,74016.5,6.51,5.99,6.07,0,*72
1532574336.89,48556,19.06,74018.3,6.51,5.99,6.07,0,*71
1532574338.1,48557,19.06,74016.0,6.51,5.95,5.99,0,*78
1532574339.31,48558,19.06,74018.5,6.51,5.95,5.95,0,*7B
1532574340.56,48559,19.06,74016.5,6.51,5.85,5.73,0,*73
1532574341.75,48560,19.06,74012.5,6.49,5.71,5.77,0,*7F
1532574342.96,48561,19.06,74012.5,6.51,5.95,5.99,0,*7D
1532574344.15,48562,19.06,74016.5,6.49,5.67,5.59,0,*76
1532574345.38,48563,19.06,74016.5,6.49,5.85,5.85,0,*7A
1532574346.59,48564,19.06,74018.3,6.51,5.95,5.99,0,*78
1532574347.77,48565,19.06,74018.3,6.49,5.95,5.95,0,*7C
1532574348.96,48566,19.06,74020.0,6.49,6.03,5.95,0,*73
1532574350.17,48567,19.06,74020.8,6.51,5.99,5.99,0,*77
1532574351.38,48568,19.06,74020.0,6.51,5.95,5.99,0,*74
1532574352.61,48569,19.06,74020.5,6.49,5.81,5.81,0,*70
1532574353.84,48570,19.06,74016.0,6.51,5.95,5.89,0,*7C
1532574355.02,48571,19.06,74016.0,6.49,5.95,5.95,0,*79
1532574356.23,48572,19.06,74018.3,6.51,5.99,5.95,0,*7F
1532574357.44,48573,19.06,74016.0,6.51,6.11,5.99,0,*71
1532574358.63,48574,19.06,74016.5,6.49,6.03,6.03,0,*7C
1532574359.82,48575,19.06,74018.5,6.49,6.03,6.03,0,*7D
1532574361.02,48576,19.06,74016.3,6.53,6.07,6.07,0,*75
1532574362.2,48577,19.06,74018.3,6.49,5.95,5.95,0,*7F
1532574363.41,48578,19.06,74018.3,6.51,5.95,5.99,0,*75
1532574364.62,48579,19.06,74016.3,6.51,6.11,5.99,0,*7B
1532574365.85,48580,19.06,74016.8,6.53,5.95,5.89,0,*71
1532574367.06,48581,19.06,74018.0,6.51,5.99,5.99,0,*7F
1532574368.27,48582,19.06,74018.8,6.51,5.99,5.99,0,*7C
1532574369.45,48583,19.06,74016.8,6.49,5.95,5.95,0,*74
1532574370.64,48584,19.06,74018.8,6.49,5.95,6.03,0,*7F
1532574371.84,48585,19.06,74018.5,6.53,5.95,6.07,0,*71
1532574373.04,48586,19.06,74018.5,6.53,5.99,6.11,0,*79
1532574374.24,48587,19.06,74016.3,6.51,6.07,6.07,0,*79
1532574375.45,48588,19.06,74018.8,6.51,5.95,6.07,0,*7E
1532574376.68,48589,19.06,74018.0,6.49,5.93,5.93,0,*7E
1532574377.89,48590,19.06,74018.3,6.53,5.95,5.95,0,*7D
1532574379.14,48591,19.06,74018.3,6.53,5.89,5.89,0,*7C
1532574380.39,48592,19.06,74016.5,6.53,5.89,5.89,0,*7F
1532574381.6,48593,19.06,74018.0,6.51,5.99,5.95,0,*70
1532574382.81,48594,19.06,74020.0,6.53,5.99,5.99,0,*79
1532574384.02,48595,19.06,74016.5,6.51,5.95,5.95,0,*7A
1532574385.23,48596,19.06,74018.3,6.51,5.95,5.95,0,*79
1532574386.44,48597,19.06,74018.3,6.51,5.95,5.95,0,*78
1532574387.69,48598,19.06,74020.5,6.51,5.85,5.85,0,*77
1532574388.94,48599,19.06,74022.5,6.51,5.85,5.89,0,*7A
1532574390.2,48600,19.06,74020.0,6.51,5.89,5.89,0,*75
1532574391.43,48601,19.06,74022.5,6.49,5.93,5.93,0,*7D
1532574392.66,48602,19.06,74020.3,6.53,5.89,5.95,0,*78
1532574393.87,48603,19.06,74018.8,6.53,5.95,5.95,0,*74
1532574395.08,48604,19.06,74018.3,6.51,5.99,5.99,0,*71
1532574396.29,48605,19.06,74018.3,6.53,5.99,5.99,0,*72
1532574397.5,48606,19.06,74016.8,6.53,5.95,5.99,0,*7D
1532574398.73,48607,19.06,74018.0,6.53,5.89,5.95,0,*7D
1532574399.93,48608,19.0,74008.5,6.53,5.95,5.95,0,*7F
1532574401.16,48609,19.06,74012.0,6.53,5.95,5.89,0,*73
1532574402.37,48610,19.06,74014.0,6.51,5.99,5.95,0,*78
1532574403.58,48611,19.06,74016.3,6.53,5.95,5.99,0,*7B
1532574404.79,48612,19.06,74018.3,6.51,5.99,5.95,0,*7A
1532574406.0,48613,19.06,74018.5,6.53,5.99,5.99,0,*75
1532574407.2,48614,19.06,74016.0,6.53,5.63,5.63,0,*72
1532574408.46,48615,19.0,74012.0,6.51,5.89,5.85,0,*7D
1532574409.67,48616,19.06,74018.3,6.51,5.99,5.99,0,*72
1532574410.88,48617,19.06,74020.0,6.53,5.99,5.99,0,*71
1532574412.09,48618,19.06,74020.8,6.53,5.95,5.99,0,*72
1532574413.29,48619,19.06,74020.8,6.53,5.95,5.99,0,*73
1532574414.55,48620,19.06,74018.5,6.53,5.89,5.85,0,*79
1532574415.78,48621,19.06,74022.3,6.53,5.95,5.85,0,*75
1532574416.99,48622,19.06,74018.8,6.53,5.99,5.99,0,*77
1532574418.19,48623,19.06,74022.5,6.53,5.99,5.95,0,*7A
1532574419.4,48624,19.06,74016.3,6.53,5.99,5.99,0,*71
1532574420.63,48625,19.06,74018.5,6.53,5.89,5.95,0,*7D
1532574421.88,48626,19.06,74018.8,6.53,5.85,5.85,0,*73
1532574423.12,48627,19.06,74022.5,6.51,5.89,5.99,0,*71
1532574424.33,48628,19.06,74022.5,6.53,5.99,5.99,0,*7D
1532574425.53,48629,19.06,74018.5,6.53,5.99,6.07,0,*78
1532574426.74,48630,19.06,74018.5,6.53,5.99,5.99,0,*74
1532574427.94,48631,19.06,74018.5,6.53,5.99,6.07,0,*71
1532574429.15,48632,19.0,74018.5,6.53,5.99,5.99,0,*76
1532574430.35,48633,19.06,74022.0,6.53,5.95,6.07,0,*7F
1532574431.55,48634,19.06,74022.3,6.53,5.95,6.07,0,*78
1532574432.76,48635,19.06,74018.8,6.53,5.95,5.95,0,*71
1532574434.0,48636,19.06,74018.3,6.57,5.93,5.99,0,*7C
1532574435.2,48637,19.06,74016.8,6.53,5.99,5.99,0,*73
1532574436.41,48638,19.06,74018.5,6.53,5.99,5.99,0,*7C
1532574437.61,48639,19.0,74018.5,6.53,5.99,6.07,0,*79
1532574438.82,48640,19.06,74016.5,6.53,5.95,5.95,0,*73
1532574440.03,48641,19.06,74020.3,6.53,5.99,5.99,0,*72
1532574441.23,48642,19.0,74016.3,6.53,5.95,5.95,0,*71
1532574442.45,48643,19.06,74020.8,6.57,5.99,5.99,0,*74
1532574443.69,48644,19.06,74020.8,6.53,5.85,5.89,0,*7B
1532574444.9,48645,19.06,74022.8,6.53,5.95,5.99,0,*7A
1532574446.11,48646,19.06,74020.3,6.51,5.99,5.99,0,*77
1532574447.33,48647,19.06,74020.8,6.57,5.99,5.99,0,*70
1532574448.53,48648,19.06,74022.5,6.53,5.95,5.95,0,*7B
1532574449.74,48649,19.06,74020.0,6.53,5.99,5.95,0,*76
1532574450.94,48650,19.06,74022.8,6.53,5.95,5.95,0,*72
1532574452.16,48651,19.06,74022.5,6.57,6.03,5.99,0,*77
1532574453.37,48652,19.0,74016.3,6.53,5.95,5.95,0,*70
1532574454.57,48653,19.06,74016.0,6.53,5.99,5.95,0,*7D
1532574455.8,48654,19.06,74018.3,6.53,5.89,5.95,0,*7B
1532574457.01,48655,19.06,74016.5,6.53,5.95,5.95,0,*77
1532574458.22,48656,19.06,74016.0,6.53,5.99,5.99,0,*74
1532574459.42,48657,19.06,74020.5,6.53,5.95,5.95,0,*75
1532574460.64,48658,19.06,74018.3,6.57,6.03,5.99,0,*7E
1532574461.85,48659,19.06,74018.8,6.53,5.99,5.99,0,*7B
1532574463.06,48660,19.06,74016.8,6.53,5.95,5.99,0,*7D
1532574464.31,48661,19.06,74016.0,6.57,5.85,5.85,0,*74
1532574465.53,48662,19.06,74014.0,6.53,5.71,5.73,0,*71
1532574466.79,48663,19.06,74018.8,6.57,5.93,5.89,0,*7D
1532574468.0,48664,19.06,74016.8,6.53,5.95,5.95,0,*75
1532574469.21,48665,19.06,74014.5,6.57,5.99,5.99,0,*70
1532574470.41,48666,19.0,74010.8,6.53,5.99,5.95,0,*7B
1532574471.62,48667,19.06,74012.0,6.53,5.95,5.99,0,*7A
1532574472.85,48668,19.06,74012.5,6.53,5.89,5.95,0,*74
1532574474.08,48669,19.06,74012.5,6.53,5.89,5.95,0,*75
1532574475.34,48670,19.06,74016.8,6.53,5.89,5.85,0,*7C
1532574476.57,48671,19.06,74018.0,6.53,5.99,5.89,0,*70
1532574477.79,48672,19.06,74022.0,6.57,6.03,6.03,0,*76
1532574478.99,48673,19.06,74022.0,6.53,5.95,5.99,0,*7F
1532574480.2,48674,19.06,74022.3,6.53,5.99,5.99,0,*74
1532574481.41,48675,19.06,74020.5,6.51,5.95,5.99,0,*7B
1532574482.67,48676,19.06,74026.8,6.51,5.89,5.89,0,*74
1532574483.88,48677,19.0,74018.5,6.53,5.95,5.95,0,*77
1532574485.09,48678,19.0,74018.3,6.53,5.99,5.99,0,*78
1532574486.29,48679,19.0,74016.3,6.53,5.99,5.95,0,*75
1532574487.5,48680,19.06,74020.3,6.53,5.99,5.99,0,*7F
1532574488.71,48681,19.06,74018.3,6.53,5.99,5.99,0,*7E
1532574489.91,48682,19.0,74008.3,6.53,5.99,6.07,0,*79
1532574491.12,48683,19.06,74008.0,6.53,5.99,5.99,0,*7C
1532574492.32,48684,19.06,74008.0,6.53,5.99,6.07,0,*7F
1532574493.55,48685,19.06,74014.0,6.51,5.89,5.95,0,*75
1532574494.76,48686,19.06,74014.0,6.53,5.99,5.99,0,*79
1532574495.97,48687,19.06,74012.0,6.53,5.99,5.99,0,*78
1532574497.18,48688,19.06,74018.3,6.53,5.95,5.99,0,*7B
1532574498.39,48689,19.06,74012.3,6.57,5.99,5.99,0,*72
1532574499.65,48690,19.06,74014.0,6.53,5.89,5.89,0,*7E
1532574500.85,48691,19.06,74018.0,6.53,5.95,5.99,0,*73
1532574502.06,48692,19.06,74014.3,6.53,6.07,5.99,0,*78
1532574503.26,48693,19.06,74018.8,6.53,5.95,5.95,0,*7D
1532574504.47,48694,19.06,74014.5,6.53,6.07,5.99,0,*7E
1532574505.67,48695,19.06,74014.5,6.53,5.99,6.07,0,*7F
1532574506.88,48696,19.06,74016.3,6.57,5.99,5.99,0,*7C
1532574508.09,48697,19.0,74012.0,6.57,5.99,6.03,0,*7D
1532574509.3,48698,19.06,74016.5,6.53,5.95,5.99,0,*7A
1532574510.51,48699,19.06,74012.5,6.53,5.95,5.99,0,*7B
1532574511.71,48700,19.06,74012.5,6.53,5.99,5.95,0,*7A
1532574512.92,48701,19.06,74012.0,6.53,5.99,5.99,0,*77
1532574514.13,48702,19.06,74008.5,6.53,5.99,6.11,0,*77
1532574515.33,48703,19.06,74014.5,6.53,6.11,6.07,0,*72
1532574516.56,48704,19.0,74010.5,6.57,6.03,6.13,0,*77
1532574517.76,48705,19.06,74010.8,6.53,6.07,6.07,0,*73
1532574518.99,48706,19.0,74008.3,6.59,6.13,6.13,0,*7A
1532574520.2,48707,19.06,74014.5,6.57,6.11,6.11,0,*75
1532574521.41,48708,19.06,74014.5,6.57,5.99,6.03,0,*7A
1532574522.62,48709,19.0,74010.3,6.53,5.99,5.99,0,*7F
1532574523.82,48710,19.06,74016.3,6.53,6.07,6.07,0,*77
1532574525.04,48711,19.06,74012.5,6.57,6.03,6.03,0,*72
1532574526.25,48712,19.06,74012.8,6.57,5.99,6.03,0,*71
1532574527.46,48713,19.06,74016.3,6.57,5.99,5.99,0,*70
1532574528.67,48714,19.0,74012.0,6.53,5.95,5.95,0,*73
1532574529.88,48715,19.06,74014.3,6.57,5.99,6.03,0,*76
1532574531.08,48716,19.06,74016.0,6.53,5.99,5.95,0,*7D
1532574532.29,48717,19.06,74016.0,6.53,5.95,5.95,0,*70